[[{"header":{"parameterUnit":"m.s-1","parameterCategory":1,"la1":30.2991,"la2":30.254,"lo1":-89.0895,"lo2":-89.0444,"dy":0.0017,"dx":0.0017,"nx":28,"ny":28,"refTime":"2025-04-16T09:00:00:Z","depth":0,"parameterNumber":2,"parameterNumberName":"U-component_of_WINDS"},"data":[0,0,0,0,0,0,0,0,0,0,0,0,0,0,0,0,0,0,0,0,0,0,0,0,0,0,0,0,0,0,0,0,0,0,0,0,0,0,0,0,0,0,0,0,0,0,0,0,0,0,0,0,0,0,0,0,0,0,-1.4371,-1.4371,0,-1.429,-1.4289,-1.4288,-1.4158,-1.4155,-1.4153,-1.4151,-1.407,-1.407,-1.407,0,0,0,0,0,0,0,0,0,0,0,0,0,-1.4419,-1.4419,-1.4372,-1.4371,-1.437,-1.429,-1.4289,-1.4288,-1.4158,-1.4155,-1.4152,-1.415,-1.407,-1.407,-1.407,0,0,0,0,0,0,0,0,0,0,0,0,0,-1.4375,-1.4419,-1.4372,-1.4295,-1.4287,-1.429,-1.4289,-1.4287,-1.4159,-1.4155,-1.4152,-1.4148,-1.407,-1.407,-1.407,-1.4141,0,0,-1.407,-1.407,0,0,0,0,0,0,0,0,-1.4377,-1.4373,-1.4307,-1.43,-1.4292,-1.423,-1.4276,-1.4239,-1.416,-1.4208,-1.4151,-1.4146,-1.4126,-1.4121,-1.4114,-1.4137,-1.4134,-1.407,-1.407,-1.407,-1.407,0,0,0,0,0,0,0,-1.438,-1.4376,-1.4339,-1.4307,-1.4297,-1.4266,-1.4256,-1.4268,-1.4188,-1.4203,-1.4194,-1.4186,-1.4121,-1.4114,-1.4111,-1.4133,-1.407,-1.407,-1.407,-1.407,-1.4213,-1.4217,0,0,0,0,0,0,-1.4394,-1.4379,-1.4342,-1.4337,-1.4327,-1.4268,-1.4257,-1.4254,-1.4187,-1.4174,-1.4189,-1.418,-1.4116,-1.4111,-1.4108,-1.4188,-1.407,-1.407,-1.407,-1.421,-1.4214,-1.4218,0,0,0,0,0,0,-1.4396,-1.4392,-1.4345,-1.4355,-1.4347,-1.4271,-1.4269,-1.4254,-1.4246,-1.4176,-1.4162,-1.4196,-1.4113,-1.4107,-1.4134,-1.4183,-1.407,-1.407,-1.4205,-1.4211,-1.4216,-1.4349,0,0,0,0,0,0,-1.4398,-1.4394,-1.4419,-1.4357,-1.4347,-1.4372,-1.4272,-1.4255,-1.4247,-1.4234,-1.4179,-1.4167,-1.4109,-1.4135,-1.4134,-1.4181,-1.407,-1.4201,-1.4208,-1.4215,-1.434,-1.4359,-1.4375,0,0,0,0,0,-1.44,-1.446,-1.4421,-1.4417,-1.4377,-1.4375,-1.437,-1.4302,-1.4251,-1.4277,-1.4232,-1.4168,-1.4178,-1.4139,-1.4137,-1.4185,-1.4197,-1.4206,-1.4214,-1.4332,-1.4355,-1.4374,0,0,0,0,0,0,-1.453,-1.445,-1.4406,-1.4447,-1.4419,-1.4353,-1.4383,-1.4328,-1.4314,-1.4303,-1.422,-1.4209,-1.4247,-1.4218,-1.4175,-1.4252,-1.4178,-1.4187,-1.4269,-1.429,-1.4307,-1.4313,-1.407,0,0,0,0,0,-1.4563,-1.4568,-1.4498,-1.4541,-1.4529,-1.4459,-1.4456,-1.4406,-1.4374,-1.4362,-1.4319,-1.4291,-1.4288,-1.4287,-1.428,-1.4336,-1.4323,-1.4368,-1.4386,-1.44,-1.4409,-1.4438,-1.4458,-1.4246,-1.4246,-1.4246,0,0,-1.4632,-1.4589,-1.4597,-1.4566,-1.4538,-1.4546,-1.445,-1.4462,-1.4467,-1.4363,-1.4386,-1.4354,-1.4318,-1.436,-1.4376,-1.4337,-1.4465,-1.4411,-1.4423,-1.4423,-1.4449,-1.4469,-1.4487,-1.4252,-1.4251,-1.425,0,0,-1.4761,-1.4729,-1.4762,-1.4737,-1.4696,-1.4649,-1.4658,-1.4601,-1.4576,-1.4597,-1.452,-1.4526,-1.4522,-1.45,-1.4488,-1.4613,-1.4554,-1.4613,-1.4703,-1.4733,-1.4749,-1.4764,-1.4809,-1.4826,-1.4622,-1.4622,-1.4622,0,-1.4852,-1.486,-1.4786,-1.4803,-1.4793,-1.47,-1.4734,-1.4713,-1.4673,-1.4669,-1.4626,-1.462,-1.4589,-1.4625,-1.4656,-1.4649,-1.4657,-1.4618,-1.4753,-1.4766,-1.4779,-1.4821,-1.4838,-1.4629,-1.4628,-1.4628,-1.4627,0,-1.4974,-1.4981,-1.5013,-1.4976,-1.4969,-1.4995,-1.4927,-1.4929,-1.4882,-1.484,-1.4865,-1.4824,-1.4809,-1.4814,-1.4767,-1.4845,-1.4822,-1.4767,-1.4691,-1.4807,-1.4846,-1.4862,-1.464,-1.4637,-1.4635,-1.4633,0,0,-1.5181,-1.5105,-1.5118,-1.5101,-1.5051,-1.5055,-1.5078,-1.5062,-1.5066,-1.5043,-1.506,-1.5061,-1.501,-1.4997,-1.4947,-1.4974,-1.5077,-1.4915,-1.4913,-1.4948,-1.5162,-1.5203,-1.5223,-1.5038,-1.5041,-1.5043,-1.5165,0,-1.53,-1.5333,-1.5269,-1.5317,-1.5324,-1.5237,-1.5257,-1.523,-1.5193,-1.5194,-1.5153,-1.5155,-1.5088,-1.508,-1.5102,-1.506,-1.5119,-1.505,-1.5055,-1.5056,-1.5067,-1.5243,-1.5286,-1.5403,-1.5179,-1.5182,-1.5184,0,-1.5443,-1.5426,-1.5476,-1.5425,-1.5425,-1.5444,-1.5425,-1.5427,-1.5395,-1.5367,-1.5354,-1.5296,-1.5316,-1.5244,-1.5272,-1.5227,-1.5226,-1.5206,-1.5209,-1.5206,-1.5127,-1.5246,-1.5438,-1.5456,-1.5207,-1.5205,-1.5203,0,-1.559,-1.558,-1.5609,-1.5597,-1.5538,-1.5553,-1.553,-1.5494,-1.549,-1.5474,-1.5471,-1.5459,-1.5452,-1.5445,-1.5386,-1.5338,-1.5422,-1.5344,-1.54,-1.5402,-1.5421,-1.542,-1.5616,-1.542,-1.542,-1.542,-1.542,0,-1.5729,-1.5763,-1.5674,-1.5692,-1.5728,-1.5655,-1.5694,-1.5662,-1.5631,-1.5643,-1.5568,-1.558,-1.5501,-1.5506,-1.5461,-1.5492,-1.5489,-1.5468,-1.5455,-1.5474,-1.5477,-1.5472,-1.5462,-1.5424,-1.5423,-1.5423,-1.5422,0,-1.5898,-1.584,-1.5866,-1.5808,-1.5795,-1.5824,-1.5776,-1.5791,-1.575,-1.5765,-1.5765,-1.5701,-1.5703,-1.5644,-1.5634,-1.5603,-1.5655,-1.5627,-1.5665,-1.5657,-1.5716,-1.5712,-1.5915,-1.5939,-1.5729,-1.5731,-1.5732,0,-1.5991,-1.6015,-1.5961,-1.5963,-1.5943,-1.5947,-1.5942,-1.5873,-1.5871,-1.5838,-1.5858,-1.5854,-1.5846,-1.5854,-1.5807,-1.58,-1.5772,-1.5844,-1.5771,-1.579,-1.5774,-1.5773,-1.5776,-1.586,-1.5862,-1.5864,-1.5866,0,-1.6162,-1.6133,-1.6128,-1.6115,-1.6111,-1.6097,-1.6078,-1.6085,-1.6009,-1.6012,-1.6012,-1.6007,-1.5998,-1.5995,-1.5979,-1.5956,-1.59,-1.589,-1.5903,-1.5922,-1.5944,-1.5934,-1.5708,-1.5885,-1.5884,-1.5882,-1.5881,-1.588,-1.6296,-1.6314,-1.6279,-1.6277,-1.6256,-1.6241,-1.6253,-1.6214,-1.6213,-1.62,-1.6159,-1.6168,-1.6138,-1.6111,-1.6094,-1.61,-1.6065,-1.6083,-1.6087,-1.6093,-1.6104,-1.5943,-1.6097,-1.6096,-1.6096,-1.6095,-1.6095,0,-1.6464,-1.6437,-1.6437,-1.6413,-1.6413,-1.6359,-1.6337,-1.634,-1.6348,-1.6324,-1.6319,-1.6322,-1.632,-1.6274,-1.6267,-1.6281,-1.6256,-1.6282,-1.628,-1.6276,-1.6136,-1.6126,-1.6303,-1.6303,-1.6303,-1.6303,-1.6303,-1.6303,-1.6551,-1.6579,-1.6546,-1.6564,-1.6538,-1.6545,-1.6537,-1.6524,-1.6504,-1.651,-1.6508,-1.6478,-1.6447,-1.6437,-1.6434,-1.6421,-1.6422,-1.6458,-1.6436,-1.6306,-1.6286,-1.6266,-1.6257,-1.6458,-1.6459,-1.6575,-1.6576,-1.6577]},{"header":{"parameterUnit":"m.s-1","parameterCategory":1,"la1":30.2991,"la2":30.254,"lo1":-89.0895,"lo2":-89.0444,"dy":0.0017,"dx":0.0017,"nx":28,"ny":28,"refTime":"2025-04-16T09:00:00:Z","depth":0,"parameterNumber":3,"parameterNumberName":"V-component_of_WINDS"},"data":[0,0,0,0,0,0,0,0,0,0,0,0,0,0,0,0,0,0,0,0,0,0,0,0,0,0,0,0,0,0,0,0,0,0,0,0,0,0,0,0,0,0,0,0,0,0,0,0,0,0,0,0,0,0,0,0,0,0,2.9823,2.9823,0,2.9811,2.9811,2.9811,2.9848,2.985,2.9851,2.9852,2.9832,2.9831,2.9829,0,0,0,0,0,0,0,0,0,0,0,0,0,2.9872,2.9871,2.9823,2.9823,2.9822,2.9811,2.9811,2.981,2.9848,2.985,2.9851,2.9852,2.9833,2.9831,2.9829,0,0,0,0,0,0,0,0,0,0,0,0,0,2.9854,2.9871,2.9823,2.984,2.9841,2.9811,2.9811,2.981,2.9848,2.985,2.9851,2.9853,2.9833,2.9831,2.9829,2.9779,0,0,2.9821,2.982,0,0,0,0,0,0,0,0,2.9855,2.9853,2.9838,2.9839,2.984,2.9833,2.9821,2.9799,2.9847,2.9845,2.9852,2.9854,2.9831,2.9829,2.9822,2.9778,2.9777,2.9821,2.982,2.9819,2.9818,0,0,0,0,0,0,0,2.9857,2.9853,2.9818,2.9837,2.9839,2.9847,2.9846,2.9817,2.9828,2.9846,2.9848,2.9847,2.9832,2.9825,2.9822,2.9777,2.9821,2.9819,2.9818,2.9817,2.969,2.9689,0,0,0,0,0,0,2.9857,2.9854,2.9818,2.9817,2.9853,2.9844,2.9844,2.9833,2.9828,2.983,2.9845,2.9849,2.9828,2.9825,2.9822,2.9762,2.9819,2.9816,2.9815,2.9692,2.969,2.9688,0,0,0,0,0,0,2.9857,2.9853,2.9819,2.9837,2.9833,2.9842,2.983,2.9832,2.9825,2.9828,2.983,2.9836,2.9829,2.9825,2.979,2.9762,2.9815,2.9813,2.9695,2.9692,2.9689,2.9643,0,0,0,0,0,0,2.9859,2.9853,2.9835,2.9836,2.9832,2.9788,2.9828,2.9831,2.9822,2.9826,2.982,2.9821,2.983,2.9793,2.9787,2.976,2.9811,2.9697,2.9693,2.969,2.9647,2.9639,2.9632,0,0,0,0,0,2.986,2.9821,2.9834,2.983,2.981,2.9787,2.9784,2.9798,2.982,2.9801,2.9803,2.9821,2.9767,2.9789,2.9783,2.9754,2.9699,2.9694,2.969,2.965,2.9641,2.9632,0,0,0,0,0,0,2.9814,2.9822,2.9836,2.9796,2.9791,2.9793,2.977,2.9787,2.9773,2.9777,2.9792,2.9791,2.9752,2.975,2.9775,2.9706,2.9736,2.973,2.9708,2.9699,2.9692,2.9692,2.9809,0,0,0,0,0,2.98,2.9783,2.9789,2.9753,2.975,2.9761,2.9751,2.9762,2.9756,2.9753,2.9753,2.9744,2.9726,2.9712,2.9695,2.9648,2.9646,2.9625,2.9618,2.9612,2.9606,2.958,2.957,2.9674,2.9674,2.9674,0,0,2.9769,2.9771,2.9758,2.9744,2.9741,2.9721,2.9758,2.9735,2.972,2.9749,2.9716,2.9716,2.9707,2.9666,2.9647,2.9662,2.9577,2.9606,2.9601,2.9599,2.9575,2.9565,2.9556,2.9671,2.9672,2.9672,0,0,2.9702,2.9703,2.9673,2.967,2.9667,2.9674,2.9667,2.9668,2.9669,2.9637,2.9659,2.964,2.9607,2.96,2.9592,2.9526,2.9541,2.9519,2.9479,2.9454,2.9446,2.9439,2.9414,2.9405,2.9514,2.9514,2.9514,0,2.9663,2.9636,2.9655,2.9631,2.9624,2.9653,2.9622,2.9618,2.9607,2.96,2.9619,2.9579,2.9575,2.9532,2.9517,2.951,2.9501,2.9519,2.9446,2.9439,2.9433,2.9409,2.9399,2.9511,2.9512,2.9512,2.9512,0,2.9588,2.9569,2.9545,2.9537,2.9527,2.95,2.9513,2.9501,2.9513,2.9518,2.9485,2.9482,2.9465,2.9456,2.9467,2.9415,2.9424,2.9444,2.9475,2.942,2.9398,2.9389,2.9507,2.9508,2.9509,2.951,0,0,2.9489,2.9495,2.9485,2.9482,2.9482,2.9466,2.9439,2.9425,2.9414,2.9406,2.9383,2.9356,2.9375,2.9366,2.9377,2.9355,2.9301,2.9378,2.9378,2.9362,2.9242,2.9226,2.9215,2.9313,2.9311,2.931,2.9242,0,2.9423,2.938,2.9397,2.9352,2.9334,2.9362,2.9339,2.9335,2.934,2.9323,2.9327,2.9308,2.9335,2.933,2.931,2.9312,2.9277,2.9317,2.9289,2.9288,2.9288,2.9204,2.9186,2.9122,2.9234,2.9232,2.9231,0,2.9339,2.9331,2.9284,2.9288,2.9281,2.926,2.9249,2.9234,2.9229,2.9234,2.9225,2.9241,2.9214,2.9247,2.9208,2.9236,2.9225,2.9225,2.9223,2.9219,2.9255,2.9195,2.9102,2.9092,2.9218,2.9219,2.922,0,2.927,2.9247,2.9217,2.9214,2.9217,2.9201,2.9202,2.92,2.919,2.918,2.9174,2.916,2.9151,2.9139,2.915,2.9173,2.9109,2.9143,2.911,2.911,2.9094,2.9094,2.8996,2.909,2.909,2.9091,2.9091,0,2.9193,2.9163,2.9186,2.9167,2.9134,2.9154,2.912,2.9123,2.9122,2.9102,2.9126,2.9107,2.9124,2.9106,2.9114,2.908,2.9077,2.9078,2.908,2.9075,2.9074,2.9067,2.9071,2.9088,2.9089,2.9089,2.909,0,2.9109,2.9124,2.9092,2.9099,2.91,2.9075,2.908,2.9062,2.9069,2.9045,2.904,2.905,2.9031,2.9042,2.902,2.9026,2.8982,2.8991,2.8984,2.8985,2.8952,2.8954,2.8843,2.8829,2.8934,2.8933,2.8932,0,2.9057,2.9036,2.9041,2.9031,2.9031,2.9014,2.9006,2.9025,2.9014,2.9009,2.8991,2.8974,2.8961,2.8928,2.8932,2.8916,2.8924,2.8886,2.8921,2.8917,2.8921,2.8922,2.8919,2.8878,2.8877,2.8876,2.8875,0,2.8965,2.8974,2.8962,2.8952,2.8942,2.8935,2.893,2.892,2.8939,2.8926,2.8907,2.8898,2.8878,2.886,2.8846,2.8844,2.8862,2.8865,2.8856,2.8849,2.8845,2.8846,2.8963,2.8866,2.8867,2.8868,2.8868,2.8869,2.8895,2.8877,2.8878,2.8864,2.8863,2.8857,2.8841,2.8848,2.8833,2.882,2.8832,2.881,2.8806,2.879,2.8787,2.8768,2.8783,2.877,2.8767,2.8763,2.8758,2.885,2.8766,2.8766,2.8766,2.8766,2.8767,0,2.8802,2.8805,2.8792,2.8785,2.8774,2.8795,2.8791,2.8779,2.876,2.8756,2.8744,2.8723,2.8706,2.871,2.8695,2.8679,2.8687,2.8674,2.8674,2.8674,2.8746,2.8755,2.8668,2.8668,2.8668,2.8668,2.8668,2.8668,2.8752,2.8723,2.8732,2.8702,2.8705,2.8685,2.868,2.8675,2.8673,2.8649,2.8636,2.864,2.8639,2.8624,2.8609,2.8611,2.8603,2.8587,2.8591,2.8659,2.8668,2.8678,2.8686,2.8586,2.8586,2.852,2.852,2.8519]}]]